Retour au catalogue

STARLINK-35036

ActifCommunicationsVLEO
NORAD 65406·PAYLOAD·🇺🇸 United States

Lancé Aug 31, 2025 depuis Cape Canaveral Space Force Station

Loading…

Prochains Passages (prochaines 24 heures)

TLE

FraisSource: CelesTrak SupGP

Époque: Sep 15, 2026, 03:57 UTC

1 65406C 25192C   26258.16506944 -.00028297  00000+0 -83621-3 0  2588
2 65406  53.1576  70.3548 0001012  74.9445 176.4589 15.34398542    19

Suivez STARLINK-35036 en temps réel avec AllMySat

Download on the App Store